Simultaneous Nadir Overpasses (SNOs) Predictions

Prediction of SNOs between AQUA and METOP-C Satellite Orbit:

Table of predicted SNOs for the next 14.0 days since TLE Epoch: 3/19/2022
Index Date (AQUA) Time (AQUA) Lat,Lon (AQUA) SZA (AQUA ) Date (METOP-C) Time (METOP-C) Lat,Lon (METOP-C) SZA (METOP-C ) Distance(km) Time Diff (sec)
1 03/21/2022 04:40:43 73.76, 104.48 73.58 03/21/2022 04:39:30 73.73, 104.40 73.56 3.99 73
2 03/21/2022 05:30:10 -73.85, -88.08 106.35 03/21/2022 05:30:10 -73.83, -88.04 106.36 2.21 0
3 03/21/2022 06:19:39 73.92, 79.39 73.73 03/21/2022 06:20:48 73.91, 79.48 73.70 3.24 69
4 03/24/2022 00:14:47 73.78, 170.93 72.48 03/24/2022 00:13:51 73.77, 170.90 72.48 1.32 56
5 03/24/2022 01:04:14 -73.86, -21.62 107.45 03/24/2022 01:04:31 -73.86, -21.55 107.45 2.24 17
6 03/24/2022 01:53:53 74.46, 144.63 73.19 03/24/2022 01:54:59 74.44, 147.22 73.07 77.21 66
7 03/26/2022 19:48:52 73.82,-122.68 71.41 03/26/2022 19:48:13 73.80,-122.62 71.40 2.68 39
8 03/26/2022 20:38:18 -73.85, 44.90 108.57 03/26/2022 20:38:54 -73.84, 44.81 108.58 2.88 36
9 03/29/2022 14:33:16 -73.17, 137.56 110.37 03/29/2022 14:32:10 -73.09, 134.84 110.34 87.97 66
10 03/29/2022 15:22:56 73.83, -56.21 70.32 03/29/2022 15:22:35 73.83, -56.14 70.32 2.33 21
11 03/29/2022 16:12:22 -73.86, 111.37 109.67 03/29/2022 16:13:16 -73.87, 111.27 109.66 3.18 54
12 04/01/2022 10:07:30 -73.78,-157.23 110.83 04/01/2022 10:06:18 -73.76,-157.24 110.83 2.03 72
13 04/01/2022 10:56:58 73.82, 10.31 69.21 04/01/2022 10:56:57 73.81, 10.21 69.20 3.61 1



Historial Predications of SNOs between AQUA and METOP-C
